Location: Martley
(52.2333°N, 2.3667°W)
Time: 15:00:22
(UTC+00:00)

USA 234 - Pass Details

Date: 11 December 2019
Orbit: 1099 x 1108 km, 123.0° (Epoch: 20 January)

Event Time Altitude Azimuth Distance (km) Brightness Sun altitude
Rises 05:44:36 0° 61° (ENE) 3,924 6.9 -20.6°
Reaches altitude 10° 05:47:05 10° 62° (ENE) 2,965 6.2 -20.3°
Maximum altitude 05:53:40 88° 150° (SSE) 1,110 3.2 -19.3°
Enters shadow 05:58:46 18° 243° (WSW) 2,413 4.6 -18.5°
